Regional Weather Roundup
Issued by NWS

Home | Current Version | Previous Version | Text Only | Print | Product List | Glossary On
Versions: 1 2 3 4 5 6 7 8 9 10 11 12 13 14 15 16 17 18 19 20 21 22 23 24 25 26 27 28 29 30 31 32 33 34 35 36 37 38 39 40 41 42 43 44 45 46 47 48 49 50
000
ASUS45 KREV 300510
RWRNV
NEVADA REGIONAL WEATHER ROUNDUP
NATIONAL WEATHER SERVICE RENO NV
1000 PM PDT TUE JUL 29 2014

NOTE: "FAIR" INDICATES FEW OR NO CLOUDS BELOW 12,000 FEET WITH NO
SIGNIFICANT WEATHER AND/OR OBSTRUCTIONS TO VISIBILITY.

NVZ001-003-004-300600-
WESTERN NEVADA

CITY           SKY/WX    TMP DP  RH WIND       PRES   REMARKS
RENO           MOCLDY    83  44  25 NW7       30.20R
CARSON CITY    FAIR      73  48  40 SW5       30.24R
SLIDE MTN        N/A     57  39  51 NW8         N/A
PYRAMID LAKE     N/A     86 N/A N/A E2          N/A
FALLON         MOCLDY    81  46  29 NW8       30.14R DUST
LOVELOCK       MOCLDY    80  46  30 E8        30.16R
HAWTHORNE      CLEAR     82  43  24 NW12      30.15R
$$

NVZ002-CAZ072-073-300600-
NORTHERN AND CENTRAL SIERRA

CITY           SKY/WX    TMP DP  RH WIND       PRES   REMARKS
S. LAKE TAHOE  MOCLDY    62  54  74 CALM      30.36R
TRUCKEE        MOCLDY    63  46  55 CALM      30.35R
SQUAW VLY 8000 NOT AVBL
SUSANVILLE     CLEAR     77  39  25 W7        30.18
BLUE CANYON    PTCLDY    73  32  22 N3        30.31R
MAMMOTH LAKES  FAIR      57  48  72 CALM      30.40S
BRIDGEPORT     FAIR      57  43  59 CALM      30.38R
$$

NVZ030-031-036-300600-
NORTHERN NEVADA

CITY           SKY/WX    TMP DP  RH WIND       PRES   REMARKS
ELKO           CLOUDY    68  51  54 NW6       30.28R
WINNEMUCCA     MOCLDY    71  51  49 CALM      30.20R
WENDOVER       CLOUDY    72  57  60 W5        30.20R
$$

NVZ035-037-300600-
CENTRAL NEVADA

CITY           SKY/WX    TMP DP  RH WIND       PRES   REMARKS
ELY            CLOUDY    58  58 100 NE3       30.33S
EUREKA           N/A     65  50  58 NW5       30.31S
$$

NVZ013-014-300600-
SOUTH CENTRAL NEVADA

CITY           SKY/WX    TMP DP  RH WIND       PRES   REMARKS
TONOPAH        CLOUDY    74  52  46 NE7       30.23R
$$

NVZ017-020-022-300600-
SOUTHERN NEVADA

CITY           SKY/WX    TMP DP  RH WIND       PRES   REMARKS
LAS VEGAS      PTCLDY    95  51  22 SW8       29.91R
N. LAS VEGAS   PTCLDY    94  51  23 NW7       29.94R
NELLIS AFB     NOT AVBL
HENDERSON      PTCLDY    89  55  31 S5        29.98R
MERCURY        CLEAR     86  51  29 NE5       30.04R
$$



USA.gov is the U.S. government's official web portal to all federal, state and local government web resources and services.